Time,TemperatureF,DewpointF,PressureIn,WindDirection,WindDirectionDegrees,WindSpeedMPH,WindSpeedGustMPH,Humidity,HourlyPrecipIn,Conditions,Clouds,dailyrainin,SolarRadiationWatts/m^2,SoftwareType,DateUTC
2013-02-25 00:00:00,32.2,27.6,30.13,West,272,7.0,13.0,83,0.00,,---,0.00,0.00,VWS V14.01,2013-02-25 05:00:00,
2013-02-25 00:27:00,32.3,27.4,30.14,West,275,9.0,14.0,82,0.00,,---,0.00,0.00,VWS V14.01,2013-02-25 05:27:00,
2013-02-25 00:30:00,32.3,27.4,30.14,West,275,9.0,14.0,82,0.00,,---,0.00,0.00,VWS V14.01,2013-02-25 05:30:00,
2013-02-25 00:57:00,32.4,27.2,30.14,WNW,292,7.0,14.0,81,0.00,,---,0.00,0.00,VWS V14.01,2013-02-25 05:57:00,
2013-02-25 01:00:00,32.4,27.2,30.14,WNW,292,7.0,14.0,81,0.00,,---,0.00,0.00,VWS V14.01,2013-02-25 06:00:00,
2013-02-25 01:27:00,32.3,27.1,30.15,West,273,6.0,11.0,81,0.00,,---,0.00,0.00,VWS V14.01,2013-02-25 06:27:00,
2013-02-25 01:30:00,32.3,27.1,30.15,West,273,6.0,11.0,81,0.00,,---,0.00,0.00,VWS V14.01,2013-02-25 06:30:00,
2013-02-25 01:57:00,32.1,26.9,30.16,NW,313,4.0,13.0,81,0.00,,---,0.00,0.00,VWS V14.01,2013-02-25 06:57:00,
2013-02-25 02:00:00,32.1,26.9,30.16,NW,313,4.0,13.0,81,0.00,,---,0.00,0.00,VWS V14.01,2013-02-25 07:00:00,
2013-02-25 02:27:00,32.1,26.9,30.17,West,273,5.0,10.0,81,0.00,,---,0.00,0.00,VWS V14.01,2013-02-25 07:27:00,
2013-02-25 02:30:00,32.1,26.9,30.17,West,273,5.0,10.0,81,0.00,,---,0.00,0.00,VWS V14.01,2013-02-25 07:30:00,
2013-02-25 02:57:00,32.0,26.8,30.17,West,276,3.0,13.0,81,0.00,,---,0.00,0.00,VWS V14.01,2013-02-25 07:57:00,
2013-02-25 03:00:00,32.0,26.8,30.17,West,276,3.0,13.0,81,0.00,,---,0.00,0.00,VWS V14.01,2013-02-25 08:00:00,
2013-02-25 03:27:00,32.0,26.8,30.18,WSW,253,9.0,11.0,81,0.00,,---,0.00,0.00,VWS V14.01,2013-02-25 08:27:00,
2013-02-25 03:30:00,32.0,26.8,30.18,WSW,253,9.0,11.0,81,0.00,,---,0.00,0.00,VWS V14.01,2013-02-25 08:30:00,
2013-02-25 03:57:00,32.0,26.8,30.18,West,271,5.0,11.0,81,0.00,,---,0.00,0.00,VWS V14.01,2013-02-25 08:57:00,
2013-02-25 04:00:00,32.0,26.8,30.18,West,271,5.0,11.0,81,0.00,,---,0.00,0.00,VWS V14.01,2013-02-25 09:00:00,
2013-02-25 04:27:00,32.0,26.8,30.19,NW,305,7.0,13.0,81,0.00,,---,0.00,0.00,VWS V14.01,2013-02-25 09:27:00,
2013-02-25 04:30:00,32.0,26.8,30.19,NW,305,7.0,13.0,81,0.00,,---,0.00,0.00,VWS V14.01,2013-02-25 09:30:00,
2013-02-25 04:57:00,32.0,27.1,30.22,West,281,5.0,9.0,82,0.00,,---,0.00,0.00,VWS V14.01,2013-02-25 09:57:00,
2013-02-25 05:00:00,32.0,27.1,30.22,West,281,5.0,9.0,82,0.00,,---,0.00,0.00,VWS V14.01,2013-02-25 10:00:00,
2013-02-25 05:27:00,32.0,27.4,30.22,West,262,2.0,8.0,83,0.00,,---,0.00,0.00,VWS V14.01,2013-02-25 10:27:00,
2013-02-25 05:30:00,32.0,27.4,30.22,West,262,2.0,8.0,83,0.00,,---,0.00,0.00,VWS V14.01,2013-02-25 10:30:00,
2013-02-25 05:57:00,31.9,27.3,30.24,West,267,3.0,6.0,83,0.00,,---,0.00,0.00,VWS V14.01,2013-02-25 10:57:00,
2013-02-25 06:00:00,31.9,27.3,30.24,West,267,3.0,6.0,83,0.00,,---,0.00,0.00,VWS V14.01,2013-02-25 11:00:00,
2013-02-25 06:27:00,31.9,27.6,30.24,West,261,4.0,7.0,84,0.00,,---,0.00,0.00,VWS V14.01,2013-02-25 11:27:00,
2013-02-25 06:30:00,31.9,27.6,30.24,West,261,4.0,7.0,84,0.00,,---,0.00,0.00,VWS V14.01,2013-02-25 11:30:00,
2013-02-25 06:57:00,31.9,27.6,30.24,West,267,4.0,8.0,84,0.00,,---,0.00,0.00,VWS V14.01,2013-02-25 11:57:00,
2013-02-25 07:00:00,31.9,27.6,30.24,West,267,4.0,8.0,84,0.00,,---,0.00,0.00,VWS V14.01,2013-02-25 12:00:00,
2013-02-25 07:27:00,32.0,27.7,30.25,West,274,4.0,8.0,84,0.00,,---,0.00,23.00,VWS V14.01,2013-02-25 12:27:00,
2013-02-25 07:30:00,32.0,27.7,30.25,West,274,4.0,8.0,84,0.00,,---,0.00,23.00,VWS V14.01,2013-02-25 12:30:00,
2013-02-25 07:57:00,32.0,27.4,30.26,West,261,4.0,7.0,83,0.00,,---,0.00,46.00,VWS V14.01,2013-02-25 12:57:00,
2013-02-25 08:00:00,32.0,27.4,30.26,West,261,4.0,7.0,83,0.00,,---,0.00,46.00,VWS V14.01,2013-02-25 13:00:00,
2013-02-25 08:27:00,32.4,27.8,30.27,WSW,255,4.0,7.0,83,0.00,,---,0.00,81.00,VWS V14.01,2013-02-25 13:27:00,
2013-02-25 08:30:00,32.4,27.8,30.27,WSW,255,4.0,7.0,83,0.00,,---,0.00,81.00,VWS V14.01,2013-02-25 13:30:00,
2013-02-25 08:57:00,32.9,28.0,30.28,WSW,250,4.0,8.0,82,0.00,,---,0.00,107.00,VWS V14.01,2013-02-25 13:57:00,
2013-02-25 09:00:00,32.9,28.0,30.28,WSW,250,4.0,8.0,82,0.00,,---,0.00,107.00,VWS V14.01,2013-02-25 14:00:00,
2013-02-25 09:27:00,33.6,28.4,30.28,West,270,4.0,8.0,81,0.00,,---,0.00,181.00,VWS V14.01,2013-02-25 14:27:00,
2013-02-25 09:30:00,33.6,28.4,30.28,West,270,4.0,8.0,81,0.00,,---,0.00,181.00,VWS V14.01,2013-02-25 14:30:00,
2013-02-25 09:57:00,34.4,28.9,30.29,West,265,3.0,11.0,80,0.00,,---,0.00,237.00,VWS V14.01,2013-02-25 14:57:00,
2013-02-25 10:00:00,34.4,28.9,30.29,West,265,3.0,11.0,80,0.00,,---,0.00,237.00,VWS V14.01,2013-02-25 15:00:00,
2013-02-25 10:27:00,35.6,29.1,30.29,West,270,4.0,9.0,77,0.00,,---,0.00,248.00,VWS V14.01,2013-02-25 15:27:00,
2013-02-25 10:30:00,35.6,29.1,30.29,West,270,4.0,9.0,77,0.00,,---,0.00,248.00,VWS V14.01,2013-02-25 15:30:00,
2013-02-25 10:57:00,36.5,28.0,30.29,NW,313,5.0,13.0,71,0.00,,---,0.00,250.00,VWS V14.01,2013-02-25 15:57:00,
2013-02-25 11:00:00,36.5,28.0,30.29,NW,313,5.0,13.0,71,0.00,,---,0.00,250.00,VWS V14.01,2013-02-25 16:00:00,
2013-02-25 11:27:00,36.3,27.5,30.30,WSW,257,8.0,11.0,70,0.00,,---,0.00,163.00,VWS V14.01,2013-02-25 16:27:00,
2013-02-25 11:30:00,36.3,27.5,30.30,WSW,257,8.0,11.0,70,0.00,,---,0.00,163.00,VWS V14.01,2013-02-25 16:30:00,
2013-02-25 11:57:00,35.9,26.7,30.31,NNW,327,7.0,12.0,69,0.00,,---,0.00,132.00,VWS V14.01,2013-02-25 16:57:00,
2013-02-25 12:00:00,35.9,26.7,30.31,NNW,327,7.0,12.0,69,0.00,,---,0.00,132.00,VWS V14.01,2013-02-25 17:00:00,
2013-02-25 12:27:00,35.9,27.1,30.31,WNW,301,2.0,10.0,70,0.00,,---,0.00,151.00,VWS V14.01,2013-02-25 17:27:00,
2013-02-25 12:30:00,35.9,27.1,30.31,WNW,301,2.0,10.0,70,0.00,,---,0.00,151.00,VWS V14.01,2013-02-25 17:30:00,
2013-02-25 12:57:00,36.4,26.5,30.32,WNW,294,7.0,10.0,67,0.00,,---,0.00,195.00,VWS V14.01,2013-02-25 17:57:00,
2013-02-25 13:00:00,36.4,26.5,30.32,WNW,294,7.0,10.0,67,0.00,,---,0.00,195.00,VWS V14.01,2013-02-25 18:00:00,
2013-02-25 13:27:00,36.5,24.7,30.31,SW,219,6.0,11.0,62,0.00,,---,0.00,142.00,VWS V14.01,2013-02-25 18:27:00,
2013-02-25 13:30:00,36.5,24.7,30.31,SW,219,6.0,11.0,62,0.00,,---,0.00,142.00,VWS V14.01,2013-02-25 18:30:00,
2013-02-25 13:57:00,37.2,25.4,30.31,WSW,258,2.0,9.0,62,0.00,,---,0.00,309.00,VWS V14.01,2013-02-25 18:57:00,
2013-02-25 14:00:00,37.2,25.4,30.31,WSW,258,2.0,9.0,62,0.00,,---,0.00,309.00,VWS V14.01,2013-02-25 19:00:00,
2013-02-25 14:27:00,37.6,25.0,30.31,WNW,292,5.0,10.0,60,0.00,,---,0.00,216.00,VWS V14.01,2013-02-25 19:27:00,
2013-02-25 14:30:00,37.6,25.0,30.31,WNW,292,5.0,10.0,60,0.00,,---,0.00,216.00,VWS V14.01,2013-02-25 19:30:00,
2013-02-25 14:57:00,37.1,25.7,30.30,WNW,297,1.0,9.0,63,0.00,,---,0.00,186.00,VWS V14.01,2013-02-25 19:57:00,
2013-02-25 15:00:00,37.1,25.7,30.30,WNW,297,1.0,9.0,63,0.00,,---,0.00,186.00,VWS V14.01,2013-02-25 20:00:00,
2013-02-25 15:27:00,36.5,27.0,30.31,West,281,2.0,10.0,68,0.00,,---,0.00,88.00,VWS V14.01,2013-02-25 20:27:00,
2013-02-25 15:30:00,36.1,27.6,30.29,NNW,335,3.0,6.0,71,0.00,,---,0.00,35.00,VWS V14.01,2013-02-25 20:30:00,
2013-02-25 15:57:00,36.4,27.2,30.29,NNW,331,4.0,8.0,69,0.00,,---,0.00,84.00,VWS V14.01,2013-02-25 20:57:00,
2013-02-25 16:00:00,36.4,27.2,30.29,NNW,331,4.0,8.0,69,0.00,,---,0.00,84.00,VWS V14.01,2013-02-25 21:00:00,
2013-02-25 16:27:00,36.1,27.6,30.29,NNW,335,3.0,6.0,71,0.00,,---,0.00,35.00,VWS V14.01,2013-02-25 21:27:00,
2013-02-25 16:30:00,36.1,27.6,30.29,NNW,335,3.0,6.0,71,0.00,,---,0.00,35.00,VWS V14.01,2013-02-25 21:30:00,
2013-02-25 16:57:00,35.6,28.5,30.30,NNW,337,2.0,5.0,75,0.00,,---,0.00,28.00,VWS V14.01,2013-02-25 21:57:00,
2013-02-25 17:00:00,35.6,28.5,30.30,NNW,337,2.0,5.0,75,0.00,,---,0.00,28.00,VWS V14.01,2013-02-25 22:00:00,
2013-02-25 17:27:00,35.3,28.5,30.31,NNW,338,0.0,5.0,76,0.00,,---,0.00,11.00,VWS V14.01,2013-02-25 22:27:00,
2013-02-25 17:30:00,35.3,28.5,30.31,NNW,338,0.0,5.0,76,0.00,,---,0.00,11.00,VWS V14.01,2013-02-25 22:30:00,
2013-02-25 17:57:00,35.0,28.5,30.30,NNW,338,0.0,3.0,77,0.00,,---,0.00,0.00,VWS V14.01,2013-02-25 22:57:00,
2013-02-25 18:00:00,35.0,28.5,30.30,NNW,338,0.0,3.0,77,0.00,,---,0.00,0.00,VWS V14.01,2013-02-25 23:00:00,
2013-02-25 18:27:00,34.6,28.5,30.31,NNW,338,0.0,2.0,78,0.00,,---,0.00,0.00,VWS V14.01,2013-02-25 23:27:00,
2013-02-25 18:30:00,34.6,28.5,30.31,NNW,338,0.0,2.0,78,0.00,,---,0.00,0.00,VWS V14.01,2013-02-25 23:30:00,
2013-02-25 18:57:00,34.5,28.4,30.31,NNW,338,0.0,2.0,78,0.00,,---,0.00,0.00,VWS V14.01,2013-02-25 23:57:00,
2013-02-25 19:00:00,34.5,28.4,30.31,NNW,338,0.0,2.0,78,0.00,,---,0.00,0.00,VWS V14.01,2013-02-26 00:00:00,
2013-02-25 19:27:00,34.1,28.6,30.31,NNW,338,0.0,1.0,80,0.00,,---,0.00,0.00,VWS V14.01,2013-02-26 00:27:00,
2013-02-25 19:30:00,34.1,28.6,30.31,NNW,338,0.0,1.0,80,0.00,,---,0.00,0.00,VWS V14.01,2013-02-26 00:30:00,
2013-02-25 19:57:00,33.8,28.6,30.31,NNW,338,0.0,1.0,81,0.00,,---,0.00,0.00,VWS V14.01,2013-02-26 00:57:00,
2013-02-25 20:00:00,33.8,28.6,30.31,NNW,338,0.0,1.0,81,0.00,,---,0.00,0.00,VWS V14.01,2013-02-26 01:00:00,
2013-02-25 20:27:00,33.9,28.4,30.31,NNW,338,0.0,1.0,80,0.00,,---,0.00,0.00,VWS V14.01,2013-02-26 01:27:00,
2013-02-25 20:30:00,33.9,28.4,30.31,NNW,338,0.0,1.0,80,0.00,,---,0.00,0.00,VWS V14.01,2013-02-26 01:30:00,
2013-02-25 20:57:00,33.5,28.6,30.31,NNW,338,0.0,3.0,82,0.00,,---,0.00,0.00,VWS V14.01,2013-02-26 01:57:00,
2013-02-25 21:00:00,33.5,28.6,30.31,NNW,338,0.0,3.0,82,0.00,,---,0.00,0.00,VWS V14.01,2013-02-26 02:00:00,
2013-02-25 21:27:00,33.2,28.3,30.32,NNW,338,0.0,2.0,82,0.00,,---,0.00,0.00,VWS V14.01,2013-02-26 02:27:00,
2013-02-25 21:30:00,33.2,28.3,30.32,NNW,338,0.0,2.0,82,0.00,,---,0.00,0.00,VWS V14.01,2013-02-26 02:30:00,
2013-02-25 21:57:00,33.0,28.4,30.32,NNW,338,3.0,4.0,83,0.00,,---,0.00,0.00,VWS V14.01,2013-02-26 02:57:00,
2013-02-25 22:00:00,33.0,28.4,30.32,NNW,338,3.0,4.0,83,0.00,,---,0.00,0.00,VWS V14.01,2013-02-26 03:00:00,
2013-02-25 22:27:00,31.7,27.7,30.32,NNW,338,0.0,3.0,85,0.00,,---,0.00,0.00,VWS V14.01,2013-02-26 03:27:00,
2013-02-25 22:30:00,31.7,27.7,30.32,NNW,338,0.0,3.0,85,0.00,,---,0.00,0.00,VWS V14.01,2013-02-26 03:30:00,
2013-02-25 22:57:00,31.0,27.6,30.31,NNW,338,0.0,2.0,87,0.00,,---,0.00,0.00,VWS V14.01,2013-02-26 03:57:00,
2013-02-25 23:00:00,31.0,27.6,30.31,NNW,338,0.0,2.0,87,0.00,,---,0.00,0.00,VWS V14.01,2013-02-26 04:00:00,
2013-02-25 23:27:00,30.1,26.7,30.31,NNW,338,0.0,0.0,87,0.00,,---,0.00,0.00,VWS V14.01,2013-02-26 04:27:00,
2013-02-25 23:30:00,30.1,26.7,30.31,NNW,338,0.0,0.0,87,0.00,,---,0.00,0.00,VWS V14.01,2013-02-26 04:30:00,
2013-02-25 23:57:00,28.9,26.1,30.31,NNW,338,0.0,0.0,89,0.00,,---,0.00,0.00,VWS V14.01,2013-02-26 04:57:00,